Regional Weather Roundup
Issued by NWS

Home | Current Version | Previous Version | Text Only | Print | Product List | Glossary Off
Versions: 1 2 3 4 5 6 7 8 9 10 11 12 13 14 15 16 17 18 19 20 21 22 23 24 25 26 27 28 29 30 31 32 33 34 35 36 37 38 39 40 41 42 43 44 45 46 47 48 49 50

000
ASUS43 KOAX 271102
RWRNE

WEATHER ROUNDUP FOR NEBRASKA
NATIONAL WEATHER SERVICE OMAHA NE
600 AM CDT THU AUG 27 2015

NOTES: SATELLITE DATA IS BEING USED TO AUGMENT CLOUD COVER ABOVE
       12000 FEET.
       "FAIR" INDICATES FEW OR NO CLOUDS BELOW 12,000 FEET WITH NO
       SIGNIFICANT WEATHER AND/OR OBSTRUCTIONS TO VISIBILITY.

  * THESE STATIONS DO NOT REPORT WEATHER SUCH AS RAIN...SNOW OR FOG.

NEZ001>004-019>022-054>056-271200-
NEBRASKA PANHANDLE

CITY           SKY/WX    TMP DP  RH WIND       PRES   REMARKS
SCOTTSBLUFF    CLOUDY    68  64  87 NW5       30.03S
ALLIANCE       MOCLDY    67  65  93 NE9       29.97F
CHADRON        CLOUDY    63  57  81 CALM      29.99F
KIMBALL        MOCLDY    67  50  54 N10       30.05F
SIDNEY         PTCLDY    62  49  62 NW9       30.02S
$$

NEZ057>060-069>072-079>082-271200-
SOUTHWEST NEBRASKA

CITY           SKY/WX    TMP DP  RH WIND       PRES   REMARKS
NORTH PLATTE   MOCLDY    61  60  97 E8        29.93F
IMPERIAL       PTCLDY    64  51  62 SW3       29.96F
LEXINGTON      MOCLDY    67  65  95 SE6       29.94F FOG
MC COOK        PTCLDY    73  54  51 SW5       29.94F
OGALLALA       PTCLDY    61  53  76 CALM      29.95F
$$

NEZ005>010-023>029-035>040-094-271200-
NORTH CENTRAL NEBRASKA

CITY           SKY/WX    TMP DP  RH WIND       PRES   REMARKS
VALENTINE      CLOUDY    69  65  86 E14       29.95R
AINSWORTH      CLOUDY    68  67  94 E12       29.97F
BROKEN BOW     CLOUDY    67  66  97 SE3       29.94F FOG
O`NEILL        CLOUDY    69  66  92 E7        30.02F
ORD            CLOUDY    66  64  93 SE8       29.95R
THEDFORD       CLOUDY    68  66  93 E5        29.97S
$$

NEZ041-046>049-061>064-073>077-083>087-271200-
SOUTH CENTRAL NEBRASKA

CITY           SKY/WX    TMP DP  RH WIND       PRES   REMARKS
GRAND ISLAND   CLOUDY    67  65  93 SE12      29.96F
AURORA         CLOUDY    66  65  99 SE9       29.97F
HASTINGS       CLOUDY    68  67  96 MISG      29.96F
HEBRON         MOCLDY    70  65  84 S8        29.99F
HOLDREGE       CLOUDY    68  66  93 S8        29.95F
KEARNEY *      CLOUDY    66  64  94 SE10      29.94F
YORK           CLOUDY    66  64  94 SE6       29.99R
$$

NEZ011>018-030>034-042>045-271200-
NORTHEAST NEBRASKA

CITY           SKY/WX    TMP DP  RH WIND       PRES   REMARKS
NORFOLK        LGT RAIN  67  63  87 SE8       30.00F
ALBION         CLOUDY    67  62  83 NE13      30.01R THUNDER
BLAIR          FAIR      66  58  77 SE12      30.02F
COLUMBUS *     CLOUDY    66  59  77 S5        30.00F
FREMONT        CLOUDY    66  61  84 CALM      30.04R THUNDER
TEKAMAH        CLOUDY    62  59  90 SE8       30.02F
$$

NEZ050>053-065>068-078-088>093-271200-
SOUTHEAST NEBRASKA

CITY           SKY/WX    TMP DP  RH WIND       PRES   REMARKS
LINCOLN        MOCLDY    69  61  75 S10       30.01S
OMAHA EPPLEY   MOCLDY    66  58  75 SE15      30.03F
BEATRICE       MOCLDY    68  61  78 SE8       30.01S
FALLS CITY     MOCLDY    64  60  87 SE7       30.04F
NEBRASKA CITY  MOCLDY    65  58  79 SE7       30.04F
PLATTSMOUTH    MOCLDY    65  58  78 SE10      30.04F
$$

NEZ044-045-051>053-067-271200-
OMAHA AREA

CITY           SKY/WX    TMP DP  RH WIND       PRES   REMARKS
EPPLEY FIELD   MOCLDY    66  58  75 SE15      30.03F
BLAIR          MOCLDY    66  58  77 SE12      30.02F
FREMONT        CLOUDY    66  61  84 CALM      30.04R THUNDER
MILLARD        MOCLDY    66  61  83 SE9       30.02F THUNDER
OFFUTT AFB     MOCLDY    64  58  82 E8        30.02F
PLATTSMOUTH    MOCLDY    65  58  78 SE10      30.04F
WAHOO          FAIR      65  62  87 SE8       30.01S
$$


USA.gov is the U.S. government's official web portal to all federal, state and local government web resources and services.